• Join FlightAware (Why Join?)
  • Login
  • US Flag 
07:54PM EDT


 

Airport Tracker/Info


-or-


 

Live Flight TrackerFlight Track Log ✈ EJA831 ✈ 16-Jun-2013 ✈ KFOK - KMMU

Flight Track Log - Related Links

Times and Time Zones

All times are in EDT time to prevent confusion due to time zone crossing. See the EJA831 flight status page for this flight to view local times or setup timezone preferences in your user account.

Time Position Orientation Groundspeed Altitude Reporting Facility
EDT Latitude Longitude Course Direction KTS MPH feet Rate Location/Type
11:21AM 40.8333 -72.6667 333° Northwest 190 219 1,900  Level New York TRACON
11:22AM 40.8833 -72.7000 333° Northwest 224 258 3,100 1,860 Climbing New York TRACON
11:23AM 40.9500 -72.7333 339° North 257 296 5,700 1,380 Climbing New York TRACON
11:24AM 41.0167 -72.7667 339° North 265 305 6,000 120 Climbing New York TRACON
11:25AM 41.0833 -72.8333 323° Northwest 261 300 6,000  Level New York TRACON
11:26AM 41.1333 -72.8833 323° Northwest 263 303 6,000  Level New York TRACON
11:27AM 41.2000 -72.9500 323° Northwest 266 306 6,000  Level New York TRACON
11:28AM 41.2333 -73.0167 304° West 272 313 6,000  Level New York TRACON
11:29AM 41.2500 -73.1167 283° West 252 290 6,000  Level New York TRACON
11:30AM 41.2500 -73.2167 270° West 257 296 6,000  Level New York TRACON
11:31AM 41.2667 -73.3167 283° West 252 290 6,000  Level New York TRACON
11:32AM 41.2667 -73.4000 270° West 251 289 6,000  Level New York TRACON
11:33AM 41.2667 -73.5000 270° West 250 288 6,000  Level New York TRACON
11:34AM 41.2833 -73.5833 285° West 249 287 6,000  Level New York TRACON
11:35AM 41.2667 -73.6833 258° West 246 283 6,000  Level New York TRACON
11:36AM 41.2667 -73.7667 270° West 249 287 6,000  Level New York TRACON
11:37AM 41.2500 -73.8667 258° West 248 285 6,000 -420 Level New York TRACON
11:38AM 41.2500 -73.9500 270° West 244 281 5,200 -960 Descending New York TRACON
11:39AM 41.2333 -74.0500 258° West 248 285 4,000 -600 Descending New York TRACON
11:40AM 41.2000 -74.1167 236° Southwest 246 283 4,000  Level New York TRACON
11:41AM 41.1333 -74.1500 201° Southwest 247 284 4,000 -480 Level New York TRACON
11:42AM 41.0833 -74.1833 207° Southwest 242 278 3,100 -540 Descending New York TRACON
11:43AM 41.0167 -74.2333 210° Southwest 225 259 3,000 -60 Descending New York TRACON
11:45AM 40.9667 -74.2667 207° Southwest 196 226 3,000 -240 Level New York TRACON
11:46AM 40.9167 -74.3000 207° Southwest 198 228 2,600 -300 Descending New York TRACON
11:47AM 40.8667 -74.3500 217° Southwest 178 205 2,500 -720 Descending New York TRACON
11:48AM 40.8500 -74.3667 217° Southwest 133 153 1,200 -780 Descending New York TRACON
11:49AM 40.8167 -74.4000 217° Southwest 127 146 900 -300 Descending New York TRACON
11:51AM 40.7993 -74.4149 163° South  Level Estimated
11:58AM 40.7993 -74.4149 163° South  Level Estimated
11:59AM 40.7993 -74.4149 163° South  Level Estimated
12:00PM 40.7993 -74.4149 163° South  Level Estimated